LB9CG Weather Reports


time (UTC)temp
C
wind
direction
speed
KPH
gust
KPH
rain 1hr
cm
rain 24hr
cm
rain mn
cm
humidity
%
barometer
mb
20260508063015 7 90 8.0 16.1 0.00 0.00 0.00 68 1019.2
20260508062015 7 90 4.8 11.3 0.00 0.00 0.00 70 1019.1
20260508061015 6 90 6.4 11.3 0.00 0.00 0.00 72 1019.2
20260508060035 6 90 8.0 14.5 0.00 0.00 0.00 74 1019.2
20260508055036 6 90 6.4 11.3 0.00 0.00 0.00 74 1019.2
20260508054036 6 90 4.8 9.7 0.00 0.00 0.00 77 1019.2
20260508053058 5 90 4.8 9.7 0.00 0.00 0.00 80 1019.4
20260508052017 5 90 6.4 11.3 0.00 0.00 0.00 87 1019.5
20260508051017 4 90 4.8 8.0 0.00 0.00 0.00 91 1019.4
20260508050017 4 90 1.6 4.8 0.00 0.00 0.00 92 1019.4
20260508045017 4 0.0 0.0 0.00 0.00 0.00 94 1019.4
20260508044017 3 0.0 0.0 0.00 0.00 0.00 94 1019.5
20260508043017 3 0.0 0.0 0.00 0.00 0.00 94 1019.4
20260508042017 2 0.0 1.6 0.00 0.00 0.00 95 1019.4
20260508041037 2 0.0 0.0 0.00 0.00 0.00 94 1019.5
20260508040017 2 0.0 0.0 0.00 0.00 0.00 95 1019.6
20260508035017 1 0.0 0.0 0.00 0.00 0.00 97 1019.7
20260508034017 0 0.0 0.0 0.00 0.00 0.00 97 1019.8
20260508033017 0 0.0 0.0 0.00 0.00 0.00 98 1019.7
20260508032037 0 0.0 0.0 0.00 0.00 0.00 97 1019.7
20260508031017 0 0.0 0.0 0.00 0.00 0.00 97 1019.8
20260508030017 0 0.0 1.6 0.00 0.00 0.00 97 1019.8
20260508025017 0 0.0 0.0 0.00 0.00 0.00 97 1019.8
20260508024017 0 0.0 0.0 0.00 0.00 0.00 97 1019.8
20260508023017 0 0.0 1.6 0.00 0.00 0.00 98 1019.7
20260508022017 0 0.0 1.6 0.00 0.00 0.00 97 1019.8
20260508021037 0 0.0 0.0 0.00 0.00 0.00 97 1019.7
20260508020017 0 0.0 0.0 0.00 0.00 0.00 97 1019.8
20260508015017 0 0.0 1.6 0.00 0.00 0.00 98 1019.8
20260508014017 0 0.0 1.6 0.00 0.00 0.00 97 1019.7
20260508013017 0 0.0 0.0 0.00 0.00 0.00 97 1019.8
20260508012017 0 0.0 1.6 0.00 0.00 0.00 97 1019.8
20260508011016 0 0.0 3.2 0.00 0.00 0.00 97 1019.8
20260508010016 0 0.0 0.0 0.00 0.00 0.00 97 1019.8
20260508005016 0 0.0 1.6 0.00 0.00 0.00 97 1019.8
20260508004017 0 0.0 1.6 0.00 0.00 0.00 96 1019.7
20260508003017 0 0.0 0.0 0.00 0.00 0.00 97 1019.6
20260508002017 0 0.0 0.0 0.00 0.00 0.00 96 1019.6
20260508001016 0 0.0 1.6 0.00 0.00 0.00 96 1019.6
20260508000016 0 0.0 1.6 0.00 0.00 0.00 96 1019.5
20260507235017 0 0.0 0.0 0.00 0.00 0.00 96 1019.5
20260507234016 0 0.0 1.6 0.00 0.00 0.00 96 1019.4
20260507233037 0 0.0 0.0 0.00 0.00 0.00 95 1019.4
20260507232017 0 0.0 0.0 0.00 0.00 0.00 96 1019.3
20260507231017 0 0.0 0.0 0.00 0.00 0.00 95 1019.3
20260507230017 0 0.0 0.0 0.00 0.00 0.00 95 1019.2
20260507225056 0 0.0 0.0 0.00 0.00 0.00 95 1019.1
20260507224016 0 0.0 0.0 0.00 0.00 0.00 95 1019.1
20260507223016 0 0.0 0.0 0.00 0.00 0.00 95 1019.1
20260507222016 0 0.0 0.0 0.00 0.00 0.00 95 1019.1
20260507221016 0 0.0 0.0 0.00 0.00 0.00 95 1018.9
20260507220016 0 0.0 0.0 0.00 0.00 0.00 95 1018.9
20260507215017 0 0.0 0.0 0.00 0.00 0.00 94 1018.8
20260507214037 0 0.0 0.0 0.00 0.00 0.00 94 1018.8
20260507213017 0 0.0 0.0 0.00 0.00 0.00 93 1018.7
20260507212017 1 0.0 0.0 0.00 0.00 0.00 93 1018.6
20260507211017 1 0.0 1.6 0.00 0.00 0.00 92 1018.5
20260507210017 1 293 1.6 1.6 0.00 0.00 0.00 93 1018.4
20260507205017 1 0.0 0.0 0.00 0.00 0.00 91 1018.4
20260507204017 1 0.0 1.6 0.00 0.00 0.00 91 1018.3
20260507203017 2 0.0 1.6 0.00 0.00 0.00 90 1018.1
20260507202016 2 0.0 1.6 0.00 0.00 0.00 89 1018.0
20260507201017 2 225 1.6 1.6 0.00 0.00 0.00 88 1018.0
20260507200016 3 0.0 1.6 0.00 0.00 0.00 85 1017.9
20260507195016 3 0.0 0.0 0.00 0.00 0.00 82 1017.8
20260507194016 3 0.0 1.6 0.00 0.00 0.00 81 1017.7
20260507193016 4 0.0 1.6 0.00 0.00 0.00 79 1017.6
20260507192017 5 0.0 0.0 0.00 0.00 0.00 79 1017.5
20260507191016 5 293 1.6 6.4 0.00 0.00 0.00 78 1017.4
20260507190036 5 293 1.6 4.8 0.00 0.00 0.00 78 1017.3
20260507185036 6 0.0 3.2 0.00 0.00 0.00 77 1017.2
20260507184016 6 248 1.6 3.2 0.00 0.00 0.00 78 1017.2
20260507183016 6 293 3.2 11.3 0.00 0.00 0.00 79 1017.1
20260507182017 6 0.0 4.8 0.00 0.00 0.00 79 1017.0
20260507181016 6 23 3.2 6.4 0.00 0.00 0.00 78 1017.0
20260507180016 7 293 1.6 8.0 0.00 0.00 0.00 78 1016.9
20260507175016 6 293 1.6 4.8 0.00 0.00 0.00 79 1016.8
20260507173016 6 293 3.2 9.7 0.00 0.00 0.00 80 1016.6
20260507172016 6 293 3.2 11.3 0.00 0.00 0.00 80 1016.6
20260507171016 6 293 3.2 9.7 0.00 0.00 0.00 79 1016.5
20260507170036 6 293 4.8 8.0 0.00 0.00 0.00 78 1016.4
20260507165016 6 203 3.2 8.0 0.00 0.00 0.00 76 1016.2
20260507164016 7 225 6.4 11.3 0.00 0.00 0.00 74 1016.3
20260507163016 7 225 3.2 8.0 0.00 0.00 0.00 73 1016.1
20260507162016 7 270 3.2 8.0 0.00 0.00 0.00 76 1016.0
20260507161056 6 225 4.8 11.3 0.00 0.00 0.00 74 1016.0
20260507160036 6 225 1.6 6.4 0.00 0.00 0.00 75 1015.9
20260507155016 6 270 1.6 6.4 0.00 0.00 0.00 75 1015.9
20260507154016 7 225 3.2 9.7 0.00 0.00 0.00 72 1015.8
20260507153016 7 225 3.2 11.3 0.00 0.00 0.00 70 1015.7
20260507152016 7 248 3.2 16.1 0.00 0.00 0.00 73 1015.6
20260507151016 7 270 4.8 11.3 0.00 0.00 0.00 72 1015.8
20260507150016 7 293 6.4 14.5 0.00 0.00 0.00 72 1015.6
20260507145016 8 225 3.2 16.1 0.00 0.00 0.00 68 1015.6
20260507144016 8 248 4.8 11.3 0.00 0.00 0.00 71 1015.5
20260507143016 8 225 4.8 12.9 0.00 0.00 0.00 73 1015.4
20260507142016 8 225 4.8 14.5 0.00 0.00 0.00 73 1015.4
20260507141016 7 248 4.8 19.3 0.00 0.00 0.00 73 1015.3
20260507140016 7 135 3.2 9.7 0.00 0.00 0.00 73 1015.3
20260507135016 7 225 3.2 14.5 0.00 0.00 0.00 72 1015.2
20260507134036 7 248 4.8 14.5 0.00 0.00 0.00 75 1015.1
20260507133016 7 293 6.4 17.7 0.00 0.00 0.00 72 1015.1
20260507132016 8 248 3.2 9.7 0.00 0.00 0.00 72 1015.0
20260507131016 8 270 3.2 11.3 0.00 0.00 0.00 74 1015.1
20260507130016 8 203 4.8 14.5 0.00 0.00 0.00 70 1015.0
20260507125016 8 293 3.2 9.7 0.00 0.00 0.00 69 1015.1
20260507124016 8 225 1.6 6.4 0.00 0.00 0.00 70 1015.0
20260507123016 8 293 4.8 11.3 0.00 0.00 0.00 68 1015.0
20260507122016 8 180 3.2 8.0 0.00 0.00 0.00 72 1014.9
20260507121016 8 270 3.2 8.0 0.00 0.00 0.00 75 1014.9
20260507120015 7 293 3.2 8.0 0.00 0.00 0.00 81 1014.9
20260507115015 6 293 3.2 8.0 0.00 0.00 0.00 84 1014.9
20260507114016 7 293 6.4 14.5 0.00 0.00 0.00 83 1014.8
20260507113016 6 0 3.2 11.3 0.00 0.00 0.00 82 1014.8
20260507112016 6 293 1.6 4.8 0.00 0.00 0.00 82 1014.7
20260507111055 6 293 1.6 4.8 0.00 0.00 0.00 83 1014.6
20260507110016 6 293 1.6 8.0 0.00 0.00 0.00 81 1014.5
20260507105015 6 293 3.2 8.0 0.00 0.00 0.00 85 1014.4
20260507104016 6 293 3.2 11.3 0.00 0.00 0.00 83 1014.3
20260507103015 5 135 1.6 3.2 0.00 0.00 0.00 84 1014.3
20260507102016 5 225 1.6 4.8 0.00 0.00 0.00 85 1014.2
20260507101015 5 135 1.6 3.2 0.00 0.00 0.00 85 1014.1
20260507100036 5 135 1.6 9.7 0.00 0.00 0.00 84 1014.3
20260507095036 6 225 3.2 12.9 0.00 0.00 0.00 82 1014.2
20260507094016 6 158 3.2 8.0 0.00 0.00 0.00 84 1014.0
20260507093015 5 180 4.8 8.0 0.00 0.00 0.00 84 1014.0
20260507092016 5 135 3.2 8.0 0.00 0.00 0.00 86 1013.9
20260507091036 5 158 1.6 6.4 0.00 0.00 0.00 89 1013.9
20260507090015 4 248 1.6 3.2 0.00 0.00 0.00 90 1013.9
20260507085015 3 0.0 3.2 0.00 0.00 0.00 90 1013.9
20260507084015 3 135 1.6 3.2 0.00 0.00 0.00 89 1013.8
20260507083015 3 203 1.6 4.8 0.00 0.00 0.00 89 1013.8
20260507082015 3 180 1.6 8.0 0.00 0.00 0.00 89 1013.7
20260507081017 3 158 1.6 4.8 0.00 0.00 0.00 89 1013.7
20260507080017 3 225 3.2 9.7 0.00 0.00 0.00 88 1013.6
20260507075037 3 135 4.8 14.5 0.00 0.00 0.00 85 1013.6
20260507074015 5 135 3.2 9.7 0.00 0.00 0.00 83 1013.4
20260507073017 5 248 3.2 8.0 0.00 0.00 0.00 83 1013.3
20260507072017 4 135 6.4 12.9 0.00 0.00 0.00 81 1013.2
20260507071017 5 135 6.4 16.1 0.00 0.00 0.00 82 1013.1
20260507070037 5 135 4.8 11.3 0.00 0.00 0.00 81 1013.1
20260507065017 5 135 4.8 11.3 0.00 0.00 0.00 82 1012.9
20260507064037 4 135 4.8 11.3 0.00 0.00 0.00 84 1012.8